Location: Laverne
(36.7100°N, 99.8930°W)
Time: 14:35:57
(UTC-05:00)

Daily predictions for brighter satellites

Satellite Brightness Start Highest point End
(mag) Time Altitude Azimuth Time Altitude Azimuth Time Altitude Azimuth
ATLAS CENTAUR R/B 3.7 21:07:05 10° SSW 21:12:13 73° ESE 21:27:38 10° NE
Resurs 01 Rocket 2.2 21:10:20 10° SE 21:14:27 41° ENE 21:18:35 10° N
NOSS 3-2 (A) 4.2 21:10:34 10° SW 21:16:18 59° NW 21:22:40 10° NNE
USA 234 3.6 21:12:45 10° ENE 21:18:55 42° SE 21:25:03 10° SSW
deb Kosmos-1763 4.0 21:15:40 10° SSW 21:19:21 78° ESE 21:23:03 10° NNE
NOSS 3-2 (C) 3.7 21:17:51 10° SW 21:23:41 74° WNW 21:30:07 10° NNE
Cosmos 1500 4.2 21:20:26 10° NNW 21:24:11 49° W 21:27:54 10° SSW
ERS-2 2.2 21:25:49 10° SSE 21:29:27 64° ENE 21:33:07 10° N
CENTAUR R/B 2.4 21:30:26 10° SSW 21:36:06 61° ESE 21:42:35 10° NE
Cosmos 1666 2.7 21:34:46 10° N 21:38:39 68° E 21:42:28 10° SSE
Cosmos 2360 Rocket 3.4 21:34:57 10° N 21:39:40 26° ENE 21:43:55 12° ESE
Cosmos 1980 Rocket 3.6 21:37:14 10° NW 21:42:22 36° WSW 21:47:29 10° S
Cosmos 1898 Rocket 3.5 21:41:04 10° NNW 21:46:24 86° ENE 21:51:44 10° SSE
Cosmos 1814 Rocket 4.0 21:41:12 10° SSW 21:46:26 79° ESE 21:51:45 10° NNE
Aureole 2 Rocket 3.4 21:48:00 10° N 21:50:22 23° ENE 21:51:29 18° ESE
Cosmos 1975 3.2 21:48:09 10° NNW 21:52:09 65° W 21:56:06 10° S
Atlas Centaur 2 3.0 21:50:39 10° WSW 21:53:35 19° SSW 21:55:30 14° SSE
Resurs 1-3 4.0 21:49:31 10° S 21:53:51 65° W 21:58:13 10° NNW
Meteor 1-19 Rocket 4.4 21:48:53 10° S 21:54:48 90° E 22:00:45 10° N
Cosmos 990 Rocket 4.0 21:50:22 10° NNW 21:55:37 75° ENE 22:00:06 14° SSE
Iridium 2 3.6 21:52:39 10° S 21:56:26 70° E 22:00:15 10° N
Meteor 2-9 Rocket 4.3 21:51:14 10° N 21:56:29 53° E 22:00:54 15° SSE
Cosmos 1743 2.8 21:53:05 10° N 21:56:55 75° W 22:00:41 10° S
Cosmos 1455 Rocket 3.6 21:54:35 10° N 21:58:44 41° E 22:01:29 19° SE
GPS 2-05 Rocket1 3.1 21:57:12 10° WSW 22:00:21 43° SSE 22:02:11 21° ESE
H-2A R/B 2.9 21:57:46 17° ESE 22:00:50 32° ENE 22:05:19 10° N
Cosmos 1464 Rocket 4.3 21:55:19 10° SSE 22:01:24 50° E 22:07:30 10° NNE
BREEZE-M DEB (TANK) 2.5 22:04:08 10° WNW 22:06:28 67° SW 22:08:59 22° SE
Cosmos 1975 Rocket 3.8 22:03:38 10° SSW 22:07:52 54° W 22:12:06 10° N
Cosmos 2333 Rocket 4.3 22:09:52 10° NNE 22:12:32 13° NE 22:15:13 10° E
COSMOS 2428 4.3 22:11:31 10° N 22:15:50 22° ENE 22:18:42 15° E
Meteor 2-20 4.4 22:10:09 10° N 22:16:20 81° E 22:21:27 16° S
Meteor 1-23 Rocket 4.3 22:12:40 14° SSE 22:17:20 55° E 22:22:45 10° NNE
Cosmos 1242 Rocket 3.9 22:14:18 10° NNW 22:17:41 38° W 22:21:00 10° SSW
CZ-4B DEB 4.5 22:15:59 23° S 22:18:05 81° WSW 22:21:34 10° NNW
Cosmos 1833 4.3 22:14:31 10° SSW 22:20:17 84° WNW 22:26:00 10° NNE
Cosmos 1515 3.7 22:19:18 25° SSE 22:21:23 61° E 22:25:11 10° NNE
Meteor 2-20 Rocket 4.5 22:15:22 10° N 22:21:30 68° E 22:25:43 21° SSE
ARGOS 3.2 22:19:05 22° SSE 22:22:40 71° ENE 22:28:04 10° N
Terra 3.9 22:21:33 11° E 22:22:55 13° ENE 22:24:57 10° NE
OAO 1 Rocket 4.4 22:17:57 10° W 22:23:14 67° S 22:26:15 26° ESE
Meteor 2-4 Rocket 3.9 22:18:39 10° SSW 22:24:04 73° W 22:29:40 10° N
Cosmos 540 Rocket 3.4 22:19:20 10° S 22:24:27 76° ESE 22:29:38 10° NNE
Helios 1B rocket 4.0 22:22:05 10° NE 22:24:34 19° E 22:24:34 19° E
Shenzhou-11 Module 2.0 22:22:30 10° WNW 22:25:29 72° NNE 22:26:08 49° E
Cosmos 1544 Rocket 3.5 22:21:58 10° N 22:26:25 88° E 22:29:03 24° S
SPOT 5 3.9 22:26:23 23° E 22:27:40 26° ENE 22:31:29 10° NNE
Cosmos 2150 Rocket 4.1 22:24:54 10° NNW 22:30:15 77° WSW 22:33:31 24° S
Lacrosse 5 rocket 1.9 22:27:28 10° NNW 22:31:39 49° NE 22:33:08 32° E
Tiangong 2 3.0 22:30:35 10° NW 22:33:20 26° N 22:35:15 15° NE
SJ 16-02 1.8 22:30:03 10° N 22:34:20 46° ENE 22:35:37 35° ESE
Cosmos 2322 Rocket 3.1 22:30:08 10° NW 22:35:24 43° WSW 22:39:39 15° S
Cosmos 2322 3.9 22:32:04 10° NNW 22:37:43 58° ENE 22:40:13 32° SE
Cosmos 2237 Rocket 4.4 22:37:07 10° NNE 22:39:13 12° NE 22:41:20 10° ENE
Cosmos 1536 Rocket 3.6 22:38:24 22° S 22:41:17 82° W 22:45:45 10° N
SL-16 R/B 3.6 22:41:19 10° NW 22:46:17 32° WSW 22:50:35 13° SSW
MetOp-B 4.1 22:44:16 29° S 22:47:06 82° WSW 22:52:29 10° NNW
Resurs 01 Rocket 4.2 22:48:30 10° SW 22:51:05 15° W 22:53:40 10° WNW
Cosmos 1340 Rocket 4.5 22:47:56 10° SW 22:51:36 33° WNW 22:55:19 10° NNW
Cosmos 372 Rocket 3.9 22:51:29 10° NNW 22:56:36 71° ENE 22:58:00 47° SE
USA 234 4.1 22:55:37 10° NE 23:01:56 52° NW 23:08:14 10° WSW
Cosmos 2219 3.2 23:02:07 40° SSE 23:04:01 61° ESE 23:09:42 10° NNE
SL-08 RB Rocket 4.2 23:02:35 34° SSW 23:04:16 53° W 23:08:45 10° NNW
DELTA 2 R/B (1) 3.4 22:58:48 10° WSW 23:04:18 66° SSE 23:07:30 25° E
CZ-4C R/B 3.3 22:57:32 10° NNW 23:04:41 54° NE 23:08:19 32° ESE
ERS-1 Rocket 3.2 23:07:39 39° SSW 23:09:24 65° WSW 23:14:24 10° NNW
Cosmos 1092 Rocket 4.2 23:03:09 10° N 23:09:24 56° E 23:11:07 43° SE
Cosmos 2237 4.2 23:03:42 10° NNW 23:09:26 78° WSW 23:11:15 45° S
Nadezhda 4 Rocket 3.9 23:03:33 10° N 23:09:54 85° E 23:12:19 41° S
CARTOSAT-1 4.1 23:13:06 43° ENE 23:13:06 43° ENE 23:17:07 10° N
Cosmos 1025 Rocket 3.1 23:17:05 57° SW 23:17:50 71° W 23:22:13 10° N
CZ-2C R/B 3.7 23:14:37 10° NE 23:18:57 30° E 23:18:57 30° E
Cosmos 2360 Rocket 3.1 23:18:31 10° NW 23:23:44 40° WSW 23:25:42 30° SSW
Cosmos 2219 Rocket 2.3 23:21:08 10° NNW 23:26:38 57° ENE 23:27:26 52° E
Cosmos 2333 4.1 23:25:46 10° NNW 23:31:28 83° WSW 23:32:26 63° S
Meteor 1-29 4.2 23:28:44 10° N 23:31:02 39° N 23:31:02 39° N
CZ-2C R/B 3.5 23:32:01 49° E 23:32:31 50° ENE 23:37:56 10° N
Cosmos 1606 Rocket 4.0 23:29:28 10° N 23:33:18 52° NE 23:33:18 52° NE
Cosmos 2026 Rocket 4.0 23:30:25 10° N 23:36:28 57° E 23:37:10 54° ESE
SPOT 1/Viking Rocket 3.8 23:35:49 52° SW 23:36:42 60° W 23:41:48 10° NNW
Helios 1A 3.8 23:37:37 43° W 23:37:38 43° W 23:41:37 10° NNW
Cosmos 2279 Rocket 4.2 23:37:52 49° ESE 23:38:13 49° E 23:44:10 10° NNE
H-2A R/B 3.7 23:38:23 20° SW 23:40:16 24° W 23:44:21 10° NW
Landsat 7 3.9 23:41:04 63° WSW 23:41:16 64° W 23:46:01 10° NNW
Cosmos 1125 Rocket 4.1 23:36:42 10° NNW 23:41:41 47° WSW 23:42:26 43° SW
Cosmos 1655 Rocket 4.3 23:44:51 10° N 23:51:00 49° E 23:51:26 48° E
Cosmos 2142 Rocket 4.4 23:51:41 64° SSW 23:52:44 86° W 23:58:59 10° N
